RYR2906 EGSS-LGSR

Flight info

Callsign RYR2906
Flight time N/A
Altitude 35000
Route CLN M84 KONAN DCT KOK M150 KOMOB DCT EDISA DCT KUNOD DCT GEDSO DCT VEKEN DCT PINDO UL607 NETIS M601 PEXAN
Aircraft B38M/M-SDE1FGHILORVWXY/HB1

Departure

Time 2026-05-07 15:39
Airport London Stansted Airport (EGSS)

Arrival

Time N/A
Airport Santorini International Airport (LGSR)
Time Latitude Longitude Altitude Speed Heading
2026-05-07 15:20 51.88903 0.25269 313 ft 0 kts 43°
2026-05-07 15:28 51.88902 0.25269 334 ft 1 kts 43°
2026-05-07 15:29 51.88892 0.25253 334 ft 3 kts 43°
2026-05-07 15:29 51.88877 0.25231 336 ft 2 kts 43°
2026-05-07 15:29 51.88865 0.25217 336 ft 3 kts 359°
2026-05-07 15:29 51.88851 0.25227 337 ft 2 kts 315°
2026-05-07 15:30 51.88844 0.25240 333 ft 3 kts 313°
2026-05-07 15:30 51.88832 0.25260 334 ft 1 kts 313°
2026-05-07 15:30 51.88831 0.25262 334 ft 1 kts 313°
2026-05-07 15:32 51.88845 0.25237 333 ft 8 kts 313°
2026-05-07 15:32 51.88913 0.25119 339 ft 19 kts 313°
2026-05-07 15:33 51.88981 0.24984 345 ft 10 kts 294°
2026-05-07 15:33 51.88990 0.24937 348 ft 1 kts 284°
2026-05-07 15:33 51.89013 0.24862 348 ft 13 kts 304°
2026-05-07 15:33 51.89009 0.24727 350 ft 15 kts 223°
2026-05-07 15:34 51.88910 0.24578 349 ft 26 kts 223°
2026-05-07 15:34 51.88748 0.24338 346 ft 36 kts 223°
2026-05-07 15:34 51.88555 0.24051 349 ft 38 kts 223°
2026-05-07 15:34 51.88357 0.23755 346 ft 39 kts 223°
2026-05-07 15:35 51.88163 0.23463 338 ft 33 kts 223°
2026-05-07 15:35 51.88059 0.23304 339 ft 18 kts 223°
2026-05-07 15:35 51.87963 0.23158 337 ft 19 kts 223°
2026-05-07 15:35 51.87860 0.23006 339 ft 21 kts 222°
2026-05-07 15:36 51.87752 0.22845 337 ft 22 kts 223°
2026-05-07 15:36 51.87637 0.22670 339 ft 23 kts 223°
2026-05-07 15:36 51.87517 0.22492 336 ft 22 kts 222°
2026-05-07 15:36 51.87446 0.22384 333 ft 12 kts 223°
2026-05-07 15:37 51.87403 0.22296 332 ft 9 kts 254°
2026-05-07 15:37 51.87410 0.22193 331 ft 10 kts 294°
2026-05-07 15:37 51.87430 0.22152 331 ft 0 kts 314°
2026-05-07 15:37 51.87431 0.22151 330 ft 1 kts 314°
2026-05-07 15:38 51.87461 0.22100 329 ft 14 kts 314°
2026-05-07 15:38 51.87514 0.22020 331 ft 4 kts 340°
2026-05-07 15:38 51.87542 0.22042 330 ft 6 kts 43°
2026-05-07 15:38 51.87581 0.22102 329 ft 12 kts 43°
2026-05-07 15:39 51.87824 0.22467 336 ft 85 kts 43°
2026-05-07 15:39 51.88437 0.23381 340 ft 151 kts 43°
2026-05-07 15:39 51.89280 0.24650 764 ft 174 kts 46°
2026-05-07 15:39 51.90187 0.26050 1592 ft 183 kts 46°
2026-05-07 15:40 51.91085 0.27606 2321 ft 195 kts 61°
2026-05-07 15:40 51.91528 0.29745 2864 ft 211 kts 88°
2026-05-07 15:40 51.91286 0.32197 3323 ft 234 kts 112°
2026-05-07 15:40 51.90630 0.34664 3679 ft 240 kts 115°
2026-05-07 15:41 51.89953 0.37128 3675 ft 240 kts 116°
2026-05-07 15:41 51.89240 0.39669 3793 ft 253 kts 116°
2026-05-07 15:41 51.88493 0.42276 3912 ft 258 kts 117°
2026-05-07 15:41 51.87730 0.44918 3960 ft 260 kts 116°
2026-05-07 15:42 51.86959 0.47563 3988 ft 260 kts 116°
2026-05-07 15:42 51.86183 0.50217 3974 ft 260 kts 117°
2026-05-07 15:42 51.85408 0.52861 3965 ft 260 kts 116°
2026-05-07 15:42 51.84629 0.55514 4095 ft 263 kts 117°
2026-05-07 15:43 51.83845 0.58180 4913 ft 262 kts 117°
2026-05-07 15:43 51.82976 0.60787 5890 ft 266 kts 127°
2026-05-07 15:43 51.81792 0.63113 6816 ft 270 kts 131°
2026-05-07 15:43 51.80569 0.65457 7693 ft 275 kts 131°
2026-05-07 15:44 51.79333 0.67853 8572 ft 281 kts 131°
2026-05-07 15:44 51.78075 0.70304 9445 ft 286 kts 131°
2026-05-07 15:44 51.76799 0.72798 10296 ft 291 kts 130°
2026-05-07 15:44 51.75476 0.75392 10794 ft 309 kts 131°
2026-05-07 15:45 51.74067 0.78155 11155 ft 329 kts 131°
2026-05-07 15:45 51.72569 0.81090 11472 ft 349 kts 130°
2026-05-07 15:45 51.70992 0.84178 11878 ft 364 kts 130°
2026-05-07 15:45 51.69363 0.87360 12519 ft 370 kts 130°
2026-05-07 15:46 51.66058 0.93805 14002 ft 377 kts 131°
2026-05-07 15:46 51.64378 0.97072 14623 ft 380 kts 131°
2026-05-07 15:46 51.62679 1.00374 15159 ft 386 kts 130°
2026-05-07 15:47 51.60958 1.03712 15758 ft 390 kts 131°
2026-05-07 15:47 51.59218 1.07087 16327 ft 394 kts 130°
2026-05-07 15:47 51.57460 1.10490 16928 ft 397 kts 131°
2026-05-07 15:47 51.55684 1.13920 17475 ft 401 kts 131°
2026-05-07 15:48 51.53891 1.17381 18063 ft 405 kts 131°
2026-05-07 15:48 51.52083 1.20868 18577 ft 408 kts 131°
2026-05-07 15:48 51.50255 1.24386 19066 ft 411 kts 131°
2026-05-07 15:48 51.48416 1.27921 19557 ft 414 kts 131°
2026-05-07 15:49 51.46559 1.31487 20046 ft 417 kts 131°
2026-05-07 15:49 51.44690 1.35069 20529 ft 420 kts 131°
2026-05-07 15:49 51.42862 1.38751 20990 ft 424 kts 128°
2026-05-07 15:49 51.41068 1.42519 21458 ft 427 kts 129°
2026-05-07 15:50 51.39252 1.46300 21917 ft 430 kts 129°
2026-05-07 15:50 51.37420 1.50098 22377 ft 432 kts 129°
2026-05-07 15:50 51.35574 1.53915 22824 ft 435 kts 129°
2026-05-07 15:50 51.33738 1.57705 23263 ft 438 kts 129°
2026-05-07 15:51 51.31839 1.61620 23678 ft 441 kts 129°
2026-05-07 15:51 51.29951 1.65506 24007 ft 445 kts 129°
2026-05-07 15:51 51.28048 1.69419 24380 ft 447 kts 129°
2026-05-07 15:51 51.26136 1.73344 24738 ft 449 kts 129°
2026-05-07 15:52 51.24210 1.77288 25094 ft 451 kts 129°
2026-05-07 15:52 51.22275 1.81249 25448 ft 454 kts 130°
2026-05-07 15:52 51.20327 1.85227 25788 ft 456 kts 130°
2026-05-07 15:52 51.18397 1.89165 26128 ft 458 kts 130°
2026-05-07 15:53 51.16427 1.93178 26458 ft 461 kts 130°
2026-05-07 15:53 51.14542 1.97316 26779 ft 464 kts 121°
2026-05-07 15:53 51.13305 2.02070 27135 ft 468 kts 105°
2026-05-07 15:53 51.12804 2.07205 27445 ft 472 kts 97°
2026-05-07 15:54 51.12468 2.12422 27716 ft 475 kts 96°
2026-05-07 15:54 51.12154 2.17667 28036 ft 477 kts 96°
2026-05-07 15:54 51.11855 2.22933 28336 ft 479 kts 96°
2026-05-07 15:54 51.11562 2.28228 28631 ft 481 kts 96°
2026-05-07 15:55 51.11268 2.33543 28915 ft 484 kts 96°
2026-05-07 15:55 51.10971 2.38880 29242 ft 484 kts 96°
2026-05-07 15:55 51.10672 2.44211 29716 ft 482 kts 96°
2026-05-07 15:55 51.10372 2.49518 30129 ft 481 kts 96°
2026-05-07 15:56 51.10069 2.54818 30464 ft 481 kts 96°
2026-05-07 15:56 51.09765 2.60112 30790 ft 480 kts 96°
2026-05-07 15:56 51.09104 2.65287 31106 ft 477 kts 111°
2026-05-07 15:56 51.07725 2.70045 31464 ft 474 kts 118°
2026-05-07 15:57 51.06242 2.74728 31724 ft 475 kts 118°
2026-05-07 15:57 51.05244 2.77815 31934 ft 474 kts 119°
2026-05-07 15:57 51.03205 2.84022 32380 ft 473 kts 119°
2026-05-07 15:57 51.01670 2.88637 32729 ft 472 kts 120°
2026-05-07 15:58 51.00136 2.93229 33058 ft 471 kts 120°
2026-05-07 15:58 50.99117 2.96272 33254 ft 471 kts 120°
2026-05-07 15:58 50.97582 3.00851 33566 ft 470 kts 120°
2026-05-07 15:58 50.96046 3.05425 33864 ft 470 kts 120°
2026-05-07 15:59 50.94509 3.09993 34140 ft 469 kts 120°
2026-05-07 15:59 50.92972 3.14551 34371 ft 469 kts 120°
2026-05-07 15:59 50.91433 3.19108 34596 ft 469 kts 120°
2026-05-07 15:59 50.89892 3.23661 34825 ft 469 kts 120°
2026-05-07 16:00 50.88352 3.28206 35022 ft 469 kts 120°
2026-05-07 16:00 50.85259 3.37306 35059 ft 469 kts 120°
2026-05-07 16:01 50.82166 3.46373 35063 ft 469 kts 120°
2026-05-07 16:01 50.79058 3.55453 35066 ft 470 kts 120°
2026-05-07 16:02 50.75935 3.64541 35068 ft 470 kts 120°
2026-05-07 16:02 50.72811 3.73603 35066 ft 470 kts 120°
2026-05-07 16:03 50.69678 3.82658 35065 ft 470 kts 120°
2026-05-07 16:03 50.66541 3.91690 35068 ft 470 kts 120°
2026-05-07 16:04 50.63398 4.00711 35067 ft 470 kts 120°
2026-05-07 16:04 50.60245 4.09724 35066 ft 470 kts 121°
2026-05-07 16:05 50.57107 4.18664 35059 ft 470 kts 121°
2026-05-07 16:05 50.53914 4.27728 35074 ft 471 kts 121°
2026-05-07 16:06 50.50732 4.36729 35075 ft 471 kts 121°
2026-05-07 16:06 50.47567 4.45653 35075 ft 471 kts 121°
2026-05-07 16:07 50.44371 4.54632 35077 ft 471 kts 121°
2026-05-07 16:07 50.41171 4.63591 35074 ft 471 kts 121°
2026-05-07 16:08 50.37966 4.72531 35062 ft 470 kts 121°
2026-05-07 16:08 50.34759 4.81446 35063 ft 470 kts 121°
2026-05-07 16:09 50.31542 4.90358 35051 ft 470 kts 121°
2026-05-07 16:09 50.28313 4.99272 35062 ft 472 kts 121°
2026-05-07 16:10 50.25075 5.08180 35051 ft 471 kts 121°
2026-05-07 16:10 50.21831 5.17077 35055 ft 471 kts 121°